DLH2471 EGLL-EDDF

Flight info

Callsign DLH2471
Flight time 1h 6m
Altitude 36000
Route BPK6J BPK Q295 MATCH DCT REDFA DCT TACHA DCT NOLRU DCT DIXAT DIXAT1A
Aircraft A359/H-SDE2E3GHIJ3J4J5LM1ORWXY/LB1D1

Departure

Time 2026-05-04 17:12
Airport London Heathrow Airport (EGLL)

Arrival

Time 2026-05-04 18:19
Airport Frankfurt Main Airport (EDDF)
Time Latitude Longitude Altitude Speed Heading
2026-05-04 16:48 51.46939 -0.44702 91 ft 0 kts 270°
2026-05-04 17:00 51.46939 -0.44701 91 ft 1 kts 270°
2026-05-04 17:00 51.46941 -0.44643 97 ft 1 kts 262°
2026-05-04 17:01 51.46944 -0.44606 98 ft 1 kts 252°
2026-05-04 17:01 51.46954 -0.44573 98 ft 1 kts 225°
2026-05-04 17:02 51.46973 -0.44557 95 ft 1 kts 180°
2026-05-04 17:02 51.46976 -0.44557 95 ft 0 kts 177°
2026-05-04 17:03 51.46977 -0.44557 93 ft 0 kts 177°
2026-05-04 17:05 51.46968 -0.44556 92 ft 6 kts 177°
2026-05-04 17:05 51.46784 -0.44547 93 ft 13 kts 151°
2026-05-04 17:06 51.46753 -0.44317 92 ft 12 kts 91°
2026-05-04 17:06 51.46753 -0.44166 91 ft 15 kts 89°
2026-05-04 17:07 51.46775 -0.43816 93 ft 14 kts 71°
2026-05-04 17:07 51.46806 -0.43767 94 ft 7 kts 20°
2026-05-04 17:07 51.46877 -0.43752 94 ft 11 kts
2026-05-04 17:07 51.46923 -0.43705 95 ft 5 kts 64°
2026-05-04 17:08 51.46947 -0.43630 95 ft 8 kts 45°
2026-05-04 17:08 51.47101 -0.43608 91 ft 17 kts
2026-05-04 17:08 51.47223 -0.43592 94 ft 18 kts
2026-05-04 17:09 51.47332 -0.43513 95 ft 16 kts 42°
2026-05-04 17:09 51.47422 -0.43428 94 ft 13 kts
2026-05-04 17:09 51.47515 -0.43423 94 ft 15 kts
2026-05-04 17:10 51.47558 -0.43422 94 ft 0 kts 359°
2026-05-04 17:10 51.47597 -0.43423 95 ft 13 kts 359°
2026-05-04 17:11 51.47707 -0.43424 98 ft 12 kts 360°
2026-05-04 17:11 51.47760 -0.43467 96 ft 5 kts 294°
2026-05-04 17:11 51.47766 -0.44119 93 ft 92 kts 269°
2026-05-04 17:12 51.47761 -0.45527 94 ft 160 kts 270°
2026-05-04 17:12 51.47746 -0.49555 1568 ft 189 kts 269°
2026-05-04 17:13 51.48171 -0.56094 4029 ft 206 kts 293°
2026-05-04 17:14 51.50879 -0.62475 5557 ft 264 kts 330°
2026-05-04 17:14 51.52652 -0.63410 5999 ft 269 kts 348°
2026-05-04 17:14 51.56429 -0.63194 7477 ft 283 kts 24°
2026-05-04 17:15 51.57988 -0.61273 8504 ft 286 kts 49°
2026-05-04 17:15 51.60463 -0.55999 10404 ft 301 kts 54°
2026-05-04 17:16 51.62949 -0.49991 11251 ft 348 kts 63°
2026-05-04 17:16 51.66333 -0.38937 13525 ft 377 kts 64°
2026-05-04 17:17 51.67513 -0.35082 14352 ft 383 kts 64°
2026-05-04 17:17 51.71110 -0.23347 16682 ft 397 kts 65°
2026-05-04 17:18 51.72330 -0.19360 17460 ft 402 kts 65°
2026-05-04 17:18 51.74729 -0.11035 18970 ft 411 kts 73°
2026-05-04 17:19 51.75923 -0.01953 20410 ft 419 kts 84°
2026-05-04 17:19 51.76631 0.07529 21838 ft 428 kts 86°
2026-05-04 17:20 51.77314 0.17126 23258 ft 438 kts 86°
2026-05-04 17:20 51.78287 0.26954 24486 ft 449 kts 80°
2026-05-04 17:20 51.79004 0.31888 25096 ft 453 kts 79°
2026-05-04 17:21 51.80585 0.41912 26305 ft 461 kts 78°
2026-05-04 17:21 51.82212 0.52005 27471 ft 469 kts 78°
2026-05-04 17:22 51.83037 0.57174 28044 ft 473 kts 78°
2026-05-04 17:22 51.83868 0.62417 28633 ft 477 kts 78°
2026-05-04 17:23 51.86326 0.78137 30229 ft 488 kts 78°
2026-05-04 17:23 51.87165 0.83544 30696 ft 491 kts 78°
2026-05-04 17:23 51.88829 0.94323 31552 ft 497 kts 78°
2026-05-04 17:24 51.89667 0.99782 31957 ft 500 kts 78°
2026-05-04 17:24 51.92193 1.16330 33054 ft 509 kts 78°
2026-05-04 17:25 51.93040 1.21917 33464 ft 510 kts 78°
2026-05-04 17:25 51.94439 1.31179 34276 ft 508 kts 78°
2026-05-04 17:26 51.96108 1.42309 35075 ft 507 kts 78°
2026-05-04 17:26 51.98583 1.58972 36177 ft 507 kts 78°
2026-05-04 17:27 52.00224 1.70116 36868 ft 507 kts 78°
2026-05-04 17:27 52.01857 1.81286 37013 ft 508 kts 78°
2026-05-04 17:28 52.03479 1.92460 37012 ft 508 kts 79°
2026-05-04 17:29 52.08285 2.26064 37010 ft 509 kts 79°
2026-05-04 17:31 52.12283 2.54106 37007 ft 510 kts 76°
2026-05-04 17:32 52.17698 2.81636 37007 ft 511 kts 74°
2026-05-04 17:33 52.21866 3.03766 37009 ft 511 kts 75°
2026-05-04 17:34 52.24346 3.20599 37014 ft 507 kts 89°
2026-05-04 17:34 52.24296 3.26312 37014 ft 502 kts 99°
2026-05-04 17:35 52.21348 3.42554 37013 ft 495 kts 115°
2026-05-04 17:35 52.18791 3.52977 37011 ft 495 kts 115°
2026-05-04 17:36 52.16219 3.63408 37004 ft 495 kts 115°
2026-05-04 17:36 52.13665 3.73875 36997 ft 495 kts 115°
2026-05-04 17:37 52.11092 3.84450 36993 ft 495 kts 115°
2026-05-04 17:37 52.08577 3.94747 36987 ft 495 kts 115°
2026-05-04 17:38 52.05962 4.05397 36977 ft 494 kts 115°
2026-05-04 17:38 52.03451 4.15566 36971 ft 494 kts 115°
2026-05-04 17:39 51.99616 4.31012 36965 ft 494 kts 115°
2026-05-04 17:39 51.97007 4.41455 36965 ft 494 kts 116°
2026-05-04 17:40 51.94430 4.51728 36964 ft 493 kts 116°
2026-05-04 17:40 51.91831 4.62037 36967 ft 493 kts 116°
2026-05-04 17:41 51.89222 4.72340 36969 ft 493 kts 116°
2026-05-04 17:41 51.86551 4.82841 36969 ft 493 kts 116°
2026-05-04 17:42 51.83986 4.92875 36971 ft 492 kts 116°
2026-05-04 17:42 51.81341 5.03174 36968 ft 492 kts 116°
2026-05-04 17:43 51.78686 5.13472 36967 ft 492 kts 116°
2026-05-04 17:43 51.76090 5.23492 36965 ft 492 kts 116°
2026-05-04 17:44 51.73367 5.33951 36973 ft 492 kts 116°
2026-05-04 17:44 51.70762 5.43919 36956 ft 493 kts 116°
2026-05-04 17:45 51.68087 5.54105 36961 ft 493 kts 116°
2026-05-04 17:45 51.65409 5.64259 36961 ft 493 kts 116°
2026-05-04 17:46 51.62710 5.74447 36973 ft 494 kts 116°
2026-05-04 17:46 51.59998 5.84637 36970 ft 494 kts 117°
2026-05-04 17:47 51.57239 5.94955 36967 ft 494 kts 117°
2026-05-04 17:47 51.54525 6.05059 36959 ft 494 kts 117°
2026-05-04 17:48 51.51785 6.15221 36960 ft 495 kts 117°
2026-05-04 17:48 51.49443 6.23907 36963 ft 496 kts 116°
2026-05-04 17:49 51.46975 6.34034 36972 ft 497 kts 115°
2026-05-04 17:49 51.44358 6.44803 36971 ft 497 kts 115°
2026-05-04 17:50 51.41914 6.54732 36970 ft 497 kts 115°
2026-05-04 17:50 51.39340 6.65113 36971 ft 497 kts 115°
2026-05-04 17:51 51.36695 6.75726 36965 ft 497 kts 115°
2026-05-04 17:51 51.34127 6.85978 36965 ft 498 kts 115°
2026-05-04 17:52 51.31508 6.96383 36933 ft 495 kts 116°
2026-05-04 17:52 51.30264 7.01317 36375 ft 491 kts 116°
2026-05-04 17:52 51.28919 7.06343 35577 ft 490 kts 121°
2026-05-04 17:53 51.27173 7.11013 34814 ft 484 kts 131°
2026-05-04 17:53 51.24969 7.15051 34079 ft 476 kts 142°
2026-05-04 17:53 51.22411 7.18328 33232 ft 468 kts 152°
2026-05-04 17:53 51.19488 7.20966 32276 ft 464 kts 159°
2026-05-04 17:54 51.16505 7.23306 31287 ft 467 kts 159°
2026-05-04 17:54 51.13645 7.25526 30337 ft 470 kts 159°
2026-05-04 17:54 51.10785 7.27762 29298 ft 473 kts 159°
2026-05-04 17:54 51.07850 7.30144 28359 ft 473 kts 157°
2026-05-04 17:55 51.04872 7.32605 27541 ft 470 kts 157°
2026-05-04 17:55 51.02010 7.34977 26806 ft 467 kts 156°
2026-05-04 17:55 50.99102 7.37378 26084 ft 463 kts 156°
2026-05-04 17:55 50.96203 7.39765 25358 ft 460 kts 156°
2026-05-04 17:56 50.93420 7.42051 24671 ft 456 kts 156°
2026-05-04 17:56 50.90565 7.44392 23984 ft 453 kts 155°
2026-05-04 17:56 50.87778 7.46675 23222 ft 451 kts 155°
2026-05-04 17:56 50.85011 7.48945 22492 ft 446 kts 155°
2026-05-04 17:57 50.82214 7.51231 21811 ft 440 kts 155°
2026-05-04 17:57 50.79525 7.53423 21139 ft 435 kts 155°
2026-05-04 17:57 50.76736 7.55693 20442 ft 430 kts 155°
2026-05-04 17:57 50.74133 7.57810 19748 ft 425 kts 155°
2026-05-04 17:58 50.71487 7.59958 19115 ft 420 kts 155°
2026-05-04 17:58 50.69737 7.61379 18690 ft 417 kts 155°
2026-05-04 17:58 50.66349 7.64131 17772 ft 411 kts 155°
2026-05-04 17:58 50.63781 7.66209 17050 ft 406 kts 155°
2026-05-04 17:59 50.62121 7.67551 16572 ft 403 kts 155°
2026-05-04 17:59 50.59639 7.69554 15883 ft 399 kts 155°
2026-05-04 17:59 50.54752 7.73496 14528 ft 390 kts 155°
2026-05-04 18:00 50.52324 7.75446 13836 ft 387 kts 155°
2026-05-04 18:00 50.49930 7.77367 13076 ft 383 kts 155°
2026-05-04 18:00 50.47567 7.79263 12358 ft 378 kts 155°
2026-05-04 18:00 50.45208 7.81155 11660 ft 373 kts 155°
2026-05-04 18:01 50.42949 7.83247 10982 ft 371 kts 147°
2026-05-04 18:01 50.40954 7.85637 10634 ft 359 kts 144°
2026-05-04 18:01 50.39046 7.88027 10356 ft 344 kts 144°
2026-05-04 18:02 50.35460 7.92507 9891 ft 317 kts 145°
2026-05-04 18:02 50.33717 7.94673 9656 ft 305 kts 145°
2026-05-04 18:02 50.32104 7.96668 9439 ft 293 kts 145°
2026-05-04 18:02 50.30568 7.98683 9215 ft 285 kts 139°
2026-05-04 18:03 50.29348 8.01112 8873 ft 285 kts 124°
2026-05-04 18:03 50.28676 8.04047 8461 ft 290 kts 103°
2026-05-04 18:03 50.28445 8.07205 8097 ft 288 kts 98°
2026-05-04 18:03 50.28293 8.10469 7980 ft 287 kts 98°
2026-05-04 18:04 50.28153 8.13492 7977 ft 288 kts 98°
2026-05-04 18:04 50.28007 8.16609 7972 ft 287 kts 98°
2026-05-04 18:04 50.27707 8.22880 7972 ft 288 kts 98°
2026-05-04 18:05 50.27555 8.26002 7973 ft 287 kts 98°
2026-05-04 18:05 50.27402 8.29129 7970 ft 287 kts 98°
2026-05-04 18:05 50.27243 8.32357 7969 ft 287 kts 98°
2026-05-04 18:05 50.27091 8.35425 7966 ft 288 kts 98°
2026-05-04 18:06 50.26777 8.41724 7396 ft 287 kts 98°
2026-05-04 18:06 50.26626 8.44812 7049 ft 282 kts 97°
2026-05-04 18:06 50.26474 8.47825 6670 ft 280 kts 97°
2026-05-04 18:07 50.26368 8.49868 6399 ft 280 kts 98°
2026-05-04 18:07 50.26159 8.53913 5822 ft 277 kts 97°
2026-05-04 18:07 50.26002 8.56941 5431 ft 275 kts 96°
2026-05-04 18:07 50.25849 8.59898 5066 ft 272 kts 96°
2026-05-04 18:08 50.25696 8.62849 4698 ft 270 kts 96°
2026-05-04 18:08 50.25543 8.65788 4297 ft 268 kts 96°
2026-05-04 18:08 50.25393 8.68659 4030 ft 266 kts 95°
2026-05-04 18:08 50.25241 8.71566 3999 ft 268 kts 95°
2026-05-04 18:09 50.24934 8.77389 3990 ft 251 kts 95°
2026-05-04 18:09 50.24661 8.82519 3997 ft 235 kts 95°
2026-05-04 18:10 50.24522 8.85097 3999 ft 235 kts 95°
2026-05-04 18:10 50.24382 8.87695 3999 ft 235 kts 95°
2026-05-04 18:10 50.24247 8.90189 4000 ft 235 kts 95°
2026-05-04 18:10 50.24108 8.92736 3999 ft 235 kts 95°
2026-05-04 18:11 50.23710 8.95197 3999 ft 235 kts 118°
2026-05-04 18:11 50.22618 8.97037 3995 ft 233 kts 149°
2026-05-04 18:11 50.21134 8.98045 4004 ft 233 kts 162°
2026-05-04 18:11 50.19543 8.98711 3991 ft 234 kts 173°
2026-05-04 18:12 50.17906 8.98304 3996 ft 233 kts 205°
2026-05-04 18:12 50.16619 8.96910 4000 ft 233 kts 221°
2026-05-04 18:12 50.15437 8.95224 3993 ft 224 kts 223°
2026-05-04 18:12 50.14339 8.93598 3998 ft 213 kts 223°
2026-05-04 18:13 50.13258 8.91988 4017 ft 211 kts 223°
2026-05-04 18:13 50.12203 8.90413 3999 ft 211 kts 224°
2026-05-04 18:13 50.10255 8.87251 3901 ft 190 kts 237°
2026-05-04 18:14 50.09762 8.85416 3807 ft 181 kts 256°
2026-05-04 18:14 50.09578 8.84154 3714 ft 180 kts 258°
2026-05-04 18:14 50.09365 8.82233 3580 ft 180 kts 261°
2026-05-04 18:15 50.08871 8.78454 3395 ft 172 kts 251°
2026-05-04 18:15 50.08014 8.74890 2466 ft 179 kts 249°
2026-05-04 18:15 50.07529 8.73180 2331 ft 163 kts 247°
2026-05-04 18:16 50.07077 8.71639 2160 ft 149 kts 247°
2026-05-04 18:16 50.06692 8.70229 1962 ft 138 kts 251°
2026-05-04 18:16 50.06390 8.68873 1765 ft 128 kts 255°
2026-05-04 18:17 50.05824 8.66137 1477 ft 137 kts 252°
2026-05-04 18:17 50.05463 8.64745 1339 ft 136 kts 249°
2026-05-04 18:17 50.04813 8.62019 866 ft 132 kts 252°
2026-05-04 18:18 50.04496 8.60700 670 ft 130 kts 252°
2026-05-04 18:18 50.04181 8.59390 469 ft 130 kts 251°
2026-05-04 18:18 50.03868 8.58060 359 ft 127 kts 251°
2026-05-04 18:18 50.03635 8.57102 360 ft 53 kts 250°
2026-05-04 18:19 50.03491 8.56489 360 ft 30 kts 250°
2026-05-04 18:19 50.03429 8.56179 358 ft 30 kts 266°
2026-05-04 18:19 50.03450 8.55978 358 ft 17 kts 281°
2026-05-04 18:20 50.03467 8.55828 358 ft 15 kts 280°
2026-05-04 18:20 50.03484 8.55673 352 ft 13 kts 277°
2026-05-04 18:20 50.03503 8.55591 357 ft 2 kts 341°
2026-05-04 18:20 50.03508 8.55596 358 ft 0 kts 19°
2026-05-04 18:21 50.03510 8.55600 357 ft 0 kts 36°
2026-05-04 18:21 50.03527 8.55630 362 ft 10 kts 51°
2026-05-04 18:21 50.03566 8.55763 360 ft 16 kts 75°
2026-05-04 18:21 50.03604 8.55943 358 ft 19 kts 70°
2026-05-04 18:22 50.03621 8.56017 359 ft 1 kts 71°
2026-05-04 18:22 50.03617 8.56034 362 ft 2 kts 116°
2026-05-04 18:22 50.03604 8.56032 362 ft 2 kts 196°
2026-05-04 18:22 50.03601 8.55999 359 ft 8 kts 265°
2026-05-04 18:23 50.03583 8.55852 360 ft 19 kts 253°
2026-05-04 18:23 50.03538 8.55670 357 ft 15 kts 252°
2026-05-04 18:23 50.03501 8.55498 360 ft 18 kts 250°
2026-05-04 18:23 50.03454 8.55303 354 ft 21 kts 249°
2026-05-04 18:24 50.03401 8.55080 362 ft 23 kts 250°
2026-05-04 18:24 50.03342 8.54834 357 ft 25 kts 250°
2026-05-04 18:24 50.03282 8.54587 360 ft 21 kts 255°
2026-05-04 18:24 50.03317 8.54481 359 ft 10 kts 334°
2026-05-04 18:25 50.03356 8.54456 359 ft 0 kts 340°
2026-05-04 18:26 50.03362 8.54452 356 ft 6 kts 340°
2026-05-04 18:26 50.03443 8.54407 359 ft 19 kts 340°
2026-05-04 18:26 50.03577 8.54331 359 ft 6 kts 340°
2026-05-04 18:27 50.03578 8.54330 358 ft 0 kts 340°
2026-05-04 18:27 50.03585 8.54326 360 ft 4 kts 340°
2026-05-04 18:28 50.03634 8.54314 357 ft 7 kts 19°
2026-05-04 18:28 50.03676 8.54394 360 ft 13 kts 60°
2026-05-04 18:28 50.03716 8.54554 360 ft 19 kts 71°
2026-05-04 18:28 50.03765 8.54768 356 ft 22 kts 69°
2026-05-04 18:29 50.03819 8.54987 359 ft 5 kts 69°
2026-05-04 18:29 50.03834 8.55052 360 ft 8 kts 69°
2026-05-04 18:29 50.03859 8.55157 358 ft 12 kts 70°
2026-05-04 18:29 50.03892 8.55297 359 ft 15 kts 70°
2026-05-04 18:30 50.03971 8.55631 360 ft 16 kts 70°
2026-05-04 18:30 50.04014 8.55809 359 ft 19 kts 69°
2026-05-04 18:30 50.04064 8.56016 357 ft 22 kts 69°
2026-05-04 18:31 50.04121 8.56251 359 ft 24 kts 69°
2026-05-04 18:31 50.04161 8.56421 358 ft 14 kts 70°
2026-05-04 18:31 50.04173 8.56469 360 ft 0 kts 70°
2026-05-04 18:31 50.04180 8.56501 360 ft 6 kts 70°
2026-05-04 18:32 50.04198 8.56577 360 ft 10 kts 70°
2026-05-04 18:32 50.04225 8.56692 359 ft 12 kts 70°
2026-05-04 18:32 50.04234 8.56731 355 ft 6 kts 70°
2026-05-04 18:32 50.04259 8.56791 358 ft 7 kts 41°
2026-05-04 18:33 50.04307 8.56819 357 ft 8 kts 11°
2026-05-04 18:33 50.04375 8.56839 359 ft 12 kts 10°
2026-05-04 18:33 50.04463 8.56864 352 ft 14 kts 12°
2026-05-04 18:33 50.04535 8.56889 359 ft 0 kts 13°
2026-05-04 18:34 50.04549 8.56894 360 ft 7 kts 13°
2026-05-04 18:34 50.04611 8.56915 360 ft 10 kts 13°
2026-05-04 18:34 50.04660 8.56938 361 ft 0 kts 19°
2026-05-04 18:34 50.04662 8.56939 360 ft 1 kts 19°
2026-05-04 18:35 50.04681 8.56950 357 ft 5 kts 22°
2026-05-04 18:35 50.04724 8.56983 359 ft 9 kts 27°
2026-05-04 18:35 50.04775 8.57022 361 ft 6 kts 28°
2026-05-04 18:35 50.04797 8.57068 359 ft 6 kts 69°
2026-05-04 18:36 50.04807 8.57141 353 ft 2 kts 86°